STARLINK-1363 (45568 NORAD) Tracking and Keplerian Element Data

This shows tracking and keplerian element data for the satellite.

Feedback or suggestion? Click here.




ElementValue
Catalog45568
NameSTARLINK-1363
Epoch Orbit627
Epoch Day149.25001157
Epoch Year2020
RAAN224.6094
Inclination52.9975
Eccentricity0.0001207
Argument of Perigee75.82
Mean Anonmoly200.2382
Mean Motion15.62725678
Decay Rate0.00032451
L11 45568U 20025AP 20149.25001157 .00032451 00000-0 35919-3 0 9999
L22 45568 52.9975 224.6094 0001207 75.8200 200.2382 15.62725678 6277

Live tracking and technical data element details for STARLINK-1363 (NORAD 45568). STARLINK-1363 can be tracked NOW for your location showing map with azimuth and elevation plus other details from your city location.

Track the satellite on the map from your city or location and see movement details for azimuth, elevation, latitude, longitude, range, height, and movement on the map or in text.







IsCatalogInMostPopularTable: catalog: 45568, numindb: 8
Update: records affected: 1



GetName: 45568 STARLINK-1363

Hit Count: updated at: Sat, 30 May 2020 15:07:58 GMT